,,,PA_Meas_PMT16A,,PR_Meas_QMR101_102,,RH_Meas_QMH101,,SR_Meas_QMS101,,TA_Meas_QMH101,,GenWind,,GenWind,
date,time,status,PA,status,PR,status,RH,status,SR,status,TA,status,DirAvg,status,SpdAvg,
2009-06-07, 00:00:04,VALID,1000.95,VALID,0,VALID,90.1821,VALID,0,VALID,24.1696,VALID,20,VALID,0.496484,
2009-06-07, 00:01:04,VALID,1000.93,VALID,0,VALID,90.2584,VALID,0,VALID,24.15,VALID,20,VALID,0.497266,
2009-06-07, 00:02:04,VALID,1000.94,VALID,0,VALID,90.3347,VALID,0,VALID,24.1324,VALID,20,VALID,0.333594,
2009-06-07, 00:03:04,VALID,1000.96,VALID,0,VALID,90.3423,VALID,0,VALID,24.072,VALID,20,VALID,0.349219,
2009-06-07, 00:04:04,VALID,1000.95,VALID,0,VALID,90.4644,VALID,0,VALID,24.0738,VALID,22,VALID,0.532031,
2009-06-07, 00:05:04,VALID,1000.94,VALID,0,VALID,90.6551,VALID,0,VALID,24.0348,VALID,40,VALID,0.56875,
2009-06-07, 00:06:04,VALID,1000.93,VALID,0,VALID,90.7849,VALID,0,VALID,24.0348,VALID,40,VALID,0.430469,
2009-06-07, 00:07:04,VALID,1000.92,VALID,0,VALID,90.8917,VALID,0,VALID,23.9939,VALID,40,VALID,0.561719,
2009-06-07, 00:08:04,VALID,1000.91,VALID,0,VALID,91.0214,VALID,0,VALID,24.0153,VALID,40,VALID,0.420312,
2009-06-07, 00:09:04,VALID,1000.87,VALID,0,VALID,90.9832,VALID,0,VALID,23.9921,VALID,40,VALID,0.295312,
2009-06-07, 00:10:04,VALID,1000.86,VALID,0,VALID,91.09,VALID,0,VALID,23.9726,VALID,38,VALID,0.402344,
2009-06-07, 00:11:04,VALID,1000.88,VALID,0,VALID,91.3723,VALID,0,VALID,23.9939,VALID,303,VALID,0.583203,
2009-06-07, 00:12:04,VALID,1000.84,VALID,0,VALID,91.3342,VALID,0,VALID,24.0134,VALID,303,VALID,0.429688,
2009-06-07, 00:13:04,VALID,1000.8,VALID,0,VALID,91.3266,VALID,0,VALID,24.0134,VALID,303,VALID,0.349609,
2009-06-07, 00:14:04,VALID,1000.79,VALID,0,VALID,91.3342,VALID,0,VALID,24.0134,VALID,303,VALID,0.319531,
2009-06-07, 00:15:04,VALID,1000.77,VALID,0,VALID,91.3037,VALID,0.112286,VALID,24.0311,VALID,303,VALID,0.360938,
2009-06-07, 00:16:04,VALID,1000.73,VALID,0,VALID,91.1434,VALID,0.112286,VALID,24.0134,VALID,303,VALID,0.379297,
2009-06-07, 00:17:04,VALID,1000.7,VALID,0,VALID,91.0443,VALID,0.112286,VALID,23.9921,VALID,303,VALID,0.445703,
2009-06-07, 00:18:04,VALID,1000.69,VALID,0,VALID,90.884,VALID,0,VALID,23.9921,VALID,50,VALID,0.814844,
2009-06-07, 00:19:04,VALID,1000.65,VALID,0,VALID,90.7543,VALID,0,VALID,24.0134,VALID,53,VALID,0.573047,
2009-06-07, 00:20:04,VALID,1000.64,VALID,0,VALID,90.1516,VALID,0,VALID,23.9939,VALID,53,VALID,0.423438,
2009-06-07, 00:21:04,VALID,1000.63,VALID,0,VALID,89.9685,VALID,0.112286,VALID,23.9726,VALID,53,VALID,0.473047,
2009-06-07, 00:22:04,VALID,1000.6,VALID,0,VALID,89.8311,VALID,0.112286,VALID,23.9726,VALID,53,VALID,0.450781,
2009-06-07, 00:23:04,VALID,1000.57,VALID,0,VALID,89.6938,VALID,0.112286,VALID,23.9744,VALID,47,VALID,0.473828,
2009-06-07, 00:24:04,VALID,1000.54,VALID,0,VALID,89.8617,VALID,0,VALID,23.9549,VALID,32,VALID,0.585547,
2009-06-07, 00:25:04,VALID,1000.52,VALID,0,VALID,89.8464,VALID,0,VALID,23.8963,VALID,32,VALID,0.701563,
2009-06-07, 00:26:04,VALID,1000.48,VALID,0,VALID,89.8617,VALID,0,VALID,23.8573,VALID,32,VALID,0.487891,
2009-06-07, 00:27:04,VALID,1000.47,VALID,0,VALID,89.8693,VALID,0,VALID,23.8183,VALID,32,VALID,0.303516,
2009-06-07, 00:28:04,VALID,1000.46,VALID,0,VALID,90.0295,VALID,0,VALID,23.7793,VALID,32,VALID,0.573828,
2009-06-07, 00:29:04,VALID,1000.42,VALID,0,VALID,90.7162,VALID,0,VALID,23.7597,VALID,75,VALID,0.855078,
2009-06-07, 00:30:04,VALID,1000.39,VALID,0,VALID,90.884,VALID,0,VALID,23.7189,VALID,75,VALID,0.810547,
2009-06-07, 00:31:04,VALID,1000.4,VALID,0,VALID,90.8688,VALID,0,VALID,23.7793,VALID,75,VALID,0.784766,
2009-06-07, 00:32:04,VALID,1000.36,VALID,0,VALID,90.5865,VALID,0,VALID,23.8183,VALID,75,VALID,0.674609,
2009-06-07, 00:33:04,VALID,1000.35,VALID,0,VALID,90.3423,VALID,0,VALID,23.8378,VALID,75,VALID,0.722656,
2009-06-07, 00:34:04,VALID,1000.34,VALID,0,VALID,90.1134,VALID,0.112286,VALID,23.8378,VALID,75,VALID,0.548047,
2009-06-07, 00:35:04,VALID,1000.32,VALID,0,VALID,90.0295,VALID,0,VALID,23.8183,VALID,75,VALID,0.100391,
2009-06-07, 00:36:04,VALID,1000.3,VALID,0,VALID,90.3042,VALID,0.112286,VALID,23.7775,VALID,75,VALID,0.307422,
2009-06-07, 00:37:04,VALID,1000.26,VALID,0,VALID,90.5254,VALID,0,VALID,23.7793,VALID,75,VALID,0.0394531,
2009-06-07, 00:38:04,VALID,1000.28,VALID,0,VALID,90.8917,VALID,0,VALID,23.7793,VALID,88,VALID,0.391016,
2009-06-07, 00:39:04,VALID,1000.27,VALID,0,VALID,91.3952,VALID,0,VALID,23.7811,VALID,132,VALID,0.574609,
2009-06-07, 00:40:04,VALID,1000.25,VALID,0,VALID,91.4791,VALID,0,VALID,23.8006,VALID,122,VALID,0.613672,
2009-06-07, 00:41:04,VALID,1000.24,VALID,0,VALID,91.3189,VALID,0,VALID,23.7811,VALID,109,VALID,0.714063,
2009-06-07, 00:42:04,VALID,1000.22,VALID,0,VALID,91.1968,VALID,0,VALID,23.7597,VALID,87,VALID,0.948047,
2009-06-07, 00:43:04,VALID,1000.21,VALID,0,VALID,91.174,VALID,0,VALID,23.7793,VALID,76,VALID,1.36445,
2009-06-07, 00:44:04,VALID,1000.16,VALID,0,VALID,90.6628,VALID,0,VALID,23.7988,VALID,75,VALID,0.896484,
2009-06-07, 00:45:04,VALID,1000.2,VALID,0,VALID,90.1745,VALID,0,VALID,23.7811,VALID,73,VALID,1.21563,
2009-06-07, 00:46:04,VALID,1000.16,VALID,0,VALID,90.2584,VALID,0,VALID,23.7811,VALID,61,VALID,1.09961,
2009-06-07, 00:47:04,VALID,1000.16,VALID,0,VALID,89.938,VALID,0,VALID,23.8006,VALID,55,VALID,1.1832,
2009-06-07, 00:48:04,VALID,1000.17,VALID,0,VALID,89.7777,VALID,0,VALID,23.7811,VALID,56,VALID,1.18203,
2009-06-07, 00:49:04,VALID,1000.14,VALID,0,VALID,89.7091,VALID,0,VALID,23.7616,VALID,56,VALID,1.07148,
2009-06-07, 00:50:04,VALID,1000.16,VALID,0,VALID,89.4497,VALID,0,VALID,23.742,VALID,51,VALID,0.783594,
2009-06-07, 00:51:04,VALID,1000.15,VALID,0,VALID,89.3886,VALID,0,VALID,23.6835,VALID,35,VALID,0.731641,
2009-06-07, 00:52:04,VALID,1000.18,VALID,0,VALID,89.7243,VALID,0,VALID,23.625,VALID,35,VALID,0.777344,
2009-06-07, 00:53:04,VALID,1000.17,VALID,0,VALID,90.3805,VALID,0,VALID,23.5859,VALID,35,VALID,0.587891,
2009-06-07, 00:54:04,VALID,1000.19,VALID,0,VALID,90.7162,VALID,0,VALID,23.5469,VALID,35,VALID,0.448047,
2009-06-07, 00:55:04,VALID,1000.14,VALID,0,VALID,91.1282,VALID,0,VALID,23.5274,VALID,35,VALID,0.546484,
2009-06-07, 00:56:04,VALID,1000.13,VALID,0,VALID,91.7462,VALID,0,VALID,23.5274,VALID,35,VALID,0.813672,
2009-06-07, 00:57:04,VALID,1000.12,VALID,0,VALID,91.6699,VALID,0,VALID,23.5469,VALID,35,VALID,0.959766,
2009-06-07, 00:58:04,VALID,1000.15,VALID,0,VALID,91.586,VALID,0,VALID,23.5469,VALID,35,VALID,0.945703,
2009-06-07, 00:59:04,VALID,1000.13,VALID,0,VALID,91.4105,VALID,0,VALID,23.5256,VALID,32,VALID,0.978516,
2009-06-07, 01:00:04,VALID,1000.11,VALID,0,VALID,91.3876,VALID,0,VALID,23.5061,VALID,30,VALID,1.12969,
2009-06-07, 01:01:04,VALID,1000.1,VALID,0,VALID,91.0519,VALID,0,VALID,23.5079,VALID,30,VALID,0.812109,
2009-06-07, 01:02:04,VALID,1000.09,VALID,0,VALID,91.0137,VALID,0,VALID,23.4493,VALID,30,VALID,0.830859,
2009-06-07, 01:03:04,VALID,1000.06,VALID,0,VALID,91.441,VALID,0,VALID,23.4103,VALID,30,VALID,0.967578,
2009-06-07, 01:04:04,VALID,1000.06,VALID,0,VALID,91.8377,VALID,0,VALID,23.4103,VALID,30,VALID,1.10938,
2009-06-07, 01:05:04,VALID,1000.07,VALID,0,VALID,91.998,VALID,0,VALID,23.4103,VALID,37,VALID,1.01602,
2009-06-07, 01:06:04,VALID,1000.03,VALID,0,VALID,91.7614,VALID,0,VALID,23.4298,VALID,41,VALID,1.0332,
2009-06-07, 01:07:04,VALID,1000.06,VALID,0,VALID,91.5631,VALID,0,VALID,23.3908,VALID,41,VALID,1.02188,
2009-06-07, 01:08:04,VALID,1000.07,VALID,0,VALID,91.4334,VALID,0,VALID,23.3518,VALID,36,VALID,0.695313,
2009-06-07, 01:09:04,VALID,1000.04,VALID,0,VALID,91.6012,VALID,0,VALID,23.311,VALID,35,VALID,0.31875,
2009-06-07, 01:10:04,VALID,1000.05,VALID,0,VALID,91.8911,VALID,0,VALID,23.2719,VALID,35,VALID,0.436719,
2009-06-07, 01:11:04,VALID,1000.1,VALID,0,VALID,92.1429,VALID,0,VALID,23.2719,VALID,35,VALID,0.443359,
2009-06-07, 01:12:04,VALID,1000.07,VALID,0,VALID,92.1124,VALID,0,VALID,23.2329,VALID,35,VALID,0.480078,
2009-06-07, 01:13:04,VALID,1000.08,VALID,0,VALID,92.3489,VALID,0,VALID,23.2134,VALID,35,VALID,0.771875,
2009-06-07, 01:14:04,VALID,1000.09,VALID,0,VALID,92.6312,VALID,0,VALID,23.2134,VALID,41,VALID,1.11563,
2009-06-07, 01:15:04,VALID,1000.08,VALID,0,VALID,92.7304,VALID,0,VALID,23.2134,VALID,41,VALID,1.08711,
2009-06-07, 01:16:04,VALID,1000.04,VALID,0,VALID,92.6694,VALID,0,VALID,23.2329,VALID,46,VALID,0.804688,
2009-06-07, 01:17:04,VALID,1000.04,VALID,0,VALID,92.7075,VALID,0,VALID,23.2134,VALID,45,VALID,1.07539,
2009-06-07, 01:18:04,VALID,1000.02,VALID,0,VALID,92.8754,VALID,0,VALID,23.2329,VALID,45,VALID,1.09453,
2009-06-07, 01:19:04,VALID,999.994,VALID,0,VALID,92.944,VALID,0,VALID,23.2524,VALID,41,VALID,0.93125,
2009-06-07, 01:20:04,VALID,1000.03,VALID,0,VALID,92.7075,VALID,0,VALID,23.2134,VALID,41,VALID,0.634766,
2009-06-07, 01:21:04,VALID,1000.01,VALID,0,VALID,92.8067,VALID,0,VALID,23.1939,VALID,41,VALID,0.736719,
2009-06-07, 01:22:04,VALID,999.996,VALID,0,VALID,93.1348,VALID,0,VALID,23.2329,VALID,41,VALID,0.978906,
2009-06-07, 01:23:04,VALID,1000.02,VALID,0,VALID,93.1043,VALID,0,VALID,23.2719,VALID,41,VALID,1.14648,
2009-06-07, 01:24:04,VALID,1000.03,VALID,0,VALID,92.5931,VALID,0,VALID,23.2737,VALID,43,VALID,0.990234,
2009-06-07, 01:25:04,VALID,1000.05,VALID,0,VALID,92.4863,VALID,0,VALID,23.2932,VALID,36,VALID,1.04102,
2009-06-07, 01:26:04,VALID,1000.05,VALID,0,VALID,92.3566,VALID,0,VALID,23.2932,VALID,37,VALID,1.13789,
2009-06-07, 01:27:04,VALID,1000.08,VALID,0,VALID,92.265,VALID,0,VALID,23.2932,VALID,40,VALID,0.871484,
2009-06-07, 01:28:04,VALID,1000.05,VALID,0,VALID,92.2726,VALID,0,VALID,23.3127,VALID,40,VALID,1.32461,
2009-06-07, 01:29:04,VALID,1000.08,VALID,0,VALID,92.2879,VALID,0,VALID,23.3518,VALID,39,VALID,1.19727,
2009-06-07, 01:30:04,VALID,1000.03,VALID,0,VALID,92.0666,VALID,0,VALID,23.3713,VALID,35,VALID,1.28594,
2009-06-07, 01:31:04,VALID,1000.01,VALID,0,VALID,92.0514,VALID,0,VALID,23.3713,VALID,36,VALID,1.38594,
2009-06-07, 01:32:04,VALID,1000.03,VALID,0,VALID,92.1277,VALID,0,VALID,23.35,VALID,33,VALID,1.17734,
2009-06-07, 01:33:04,VALID,1000.03,VALID,0,VALID,91.998,VALID,0,VALID,23.3713,VALID,30,VALID,1.08281,
2009-06-07, 01:34:04,VALID,1000.04,VALID,0,VALID,91.9751,VALID,0,VALID,23.3518,VALID,30,VALID,0.996094,
2009-06-07, 01:35:04,VALID,1000.02,VALID,0,VALID,92.12,VALID,0,VALID,23.3305,VALID,28,VALID,1.10195,
2009-06-07, 01:36:04,VALID,1000.03,VALID,0,VALID,92.059,VALID,0,VALID,23.3323,VALID,22,VALID,1.04375,
2009-06-07, 01:37:04,VALID,1000.04,VALID,0,VALID,92.1582,VALID,0,VALID,23.3323,VALID,22,VALID,1.2332,
2009-06-07, 01:38:04,VALID,1000.05,VALID,0,VALID,92.1277,VALID,0,VALID,23.3323,VALID,16,VALID,1.03437,
2009-06-07, 01:39:04,VALID,1000.03,VALID,0,VALID,91.9522,VALID,0,VALID,23.3323,VALID,11,VALID,1.12852,
2009-06-07, 01:40:04,VALID,1000.02,VALID,0,VALID,91.7538,VALID,0,VALID,23.3323,VALID,11,VALID,0.964453,
2009-06-07, 01:41:04,VALID,1000.02,VALID,0,VALID,91.8606,VALID,0,VALID,23.3518,VALID,11,VALID,0.596094,
2009-06-07, 01:42:04,VALID,999.983,VALID,0,VALID,91.8911,VALID,0,VALID,23.3518,VALID,11,VALID,0.310156,
2009-06-07, 01:43:04,VALID,999.966,VALID,0,VALID,92.0132,VALID,0,VALID,23.3518,VALID,11,VALID,0.419531,
2009-06-07, 01:44:04,VALID,999.965,VALID,0,VALID,91.8759,VALID,0,VALID,23.3908,VALID,33,VALID,0.840625,
2009-06-07, 01:45:04,VALID,999.951,VALID,0,VALID,91.708,VALID,0,VALID,23.4103,VALID,36,VALID,0.994531,
2009-06-07, 01:46:04,VALID,999.917,VALID,0,VALID,91.5326,VALID,0,VALID,23.4298,VALID,37,VALID,0.914063,
2009-06-07, 01:47:04,VALID,999.897,VALID,0,VALID,91.1587,VALID,0,VALID,23.4298,VALID,39,VALID,0.935156,
2009-06-07, 01:48:04,VALID,999.864,VALID,0,VALID,91.3876,VALID,0,VALID,23.4298,VALID,49,VALID,1.1375,
2009-06-07, 01:49:04,VALID,999.839,VALID,0,VALID,91.3723,VALID,0,VALID,23.4298,VALID,49,VALID,1.02813,
2009-06-07, 01:50:04,VALID,999.852,VALID,0,VALID,91.2579,VALID,0,VALID,23.3908,VALID,50,VALID,0.807422,
2009-06-07, 01:51:04,VALID,999.836,VALID,0,VALID,91.5173,VALID,0,VALID,23.3695,VALID,53,VALID,0.733203,
2009-06-07, 01:52:04,VALID,999.818,VALID,0,VALID,91.38,VALID,0,VALID,23.3518,VALID,53,VALID,0.530859,
2009-06-07, 01:53:04,VALID,999.852,VALID,0,VALID,91.5936,VALID,0,VALID,23.311,VALID,53,VALID,0.696094,
2009-06-07, 01:54:04,VALID,999.876,VALID,0,VALID,91.5936,VALID,0,VALID,23.3127,VALID,53,VALID,0.354688,
2009-06-07, 01:55:04,VALID,999.856,VALID,0,VALID,91.5554,VALID,0,VALID,23.2737,VALID,53,VALID,0.1,
2009-06-07, 01:56:04,VALID,999.847,VALID,0,VALID,91.7309,VALID,0,VALID,23.2737,VALID,53,VALID,0.517969,
2009-06-07, 01:57:04,VALID,999.845,VALID,0,VALID,91.853,VALID,0,VALID,23.2347,VALID,49,VALID,0.660156,
2009-06-07, 01:58:04,VALID,999.854,VALID,0,VALID,92.0743,VALID,0,VALID,23.2329,VALID,38,VALID,0.834375,
2009-06-07, 01:59:04,VALID,999.872,VALID,0,VALID,92.3108,VALID,0,VALID,23.2542,VALID,36,VALID,0.800391,
2009-06-07, 02:00:04,VALID,999.896,VALID,0,VALID,92.471,VALID,0,VALID,23.295,VALID,32,VALID,1.02773,
2009-06-07, 02:01:04,VALID,999.903,VALID,0,VALID,92.5397,VALID,0,VALID,23.2719,VALID,32,VALID,1.03516,
2009-06-07, 02:02:04,VALID,999.922,VALID,0,VALID,92.2574,VALID,0,VALID,23.3127,VALID,32,VALID,0.896484,
2009-06-07, 02:03:04,VALID,999.922,VALID,0,VALID,92.1124,VALID,0,VALID,23.3323,VALID,32,VALID,0.437891,
2009-06-07, 02:04:04,VALID,999.909,VALID,0,VALID,91.8148,VALID,0,VALID,23.2737,VALID,32,VALID,0.0382813,
2009-06-07, 02:05:04,VALID,999.894,VALID,0,VALID,91.8911,VALID,0,VALID,23.2347,VALID,32,VALID,0.391406,
2009-06-07, 02:06:04,VALID,999.873,VALID,0,VALID,91.998,VALID,0,VALID,23.2347,VALID,38,VALID,0.778125,
2009-06-07, 02:07:04,VALID,999.874,VALID,0,VALID,91.8377,VALID,0,VALID,23.2152,VALID,39,VALID,0.878516,
2009-06-07, 02:08:04,VALID,999.865,VALID,0,VALID,91.6241,VALID,0,VALID,23.1957,VALID,39,VALID,0.844141,
2009-06-07, 02:09:04,VALID,999.867,VALID,0,VALID,92.0285,VALID,0,VALID,23.1957,VALID,41,VALID,0.691016,
2009-06-07, 02:10:04,VALID,999.906,VALID,0,VALID,91.7233,VALID,0,VALID,23.1762,VALID,39,VALID,0.671484,
2009-06-07, 02:11:04,VALID,999.896,VALID,0,VALID,91.7691,VALID,0,VALID,23.1371,VALID,37,VALID,0.592578,
2009-06-07, 02:12:04,VALID,999.919,VALID,0,VALID,91.9522,VALID,0,VALID,23.1371,VALID,32,VALID,0.932031,
2009-06-07, 02:13:04,VALID,999.93,VALID,0,VALID,92.1429,VALID,0,VALID,23.1159,VALID,32,VALID,0.821484,
2009-06-07, 02:14:04,VALID,999.928,VALID,0,VALID,92.0361,VALID,0,VALID,23.1176,VALID,32,VALID,0.660937,
2009-06-07, 02:15:04,VALID,999.941,VALID,0,VALID,92.0514,VALID,0,VALID,23.0981,VALID,32,VALID,0.560156,
2009-06-07, 02:16:04,VALID,999.932,VALID,0,VALID,92.2192,VALID,0,VALID,23.0786,VALID,22,VALID,0.858594,
2009-06-07, 02:17:04,VALID,999.931,VALID,0,VALID,92.5549,VALID,0,VALID,23.0591,VALID,22,VALID,1.04141,
2009-06-07, 02:18:04,VALID,999.937,VALID,0,VALID,92.3794,VALID,0,VALID,23.0591,VALID,22,VALID,0.996094,
2009-06-07, 02:19:04,VALID,999.931,VALID,0,VALID,92.3947,VALID,0,VALID,23.0786,VALID,29,VALID,0.976563,
2009-06-07, 02:20:04,VALID,999.938,VALID,0,VALID,92.3108,VALID,0,VALID,23.0786,VALID,37,VALID,0.964844,
2009-06-07, 02:21:04,VALID,999.898,VALID,0,VALID,91.9293,VALID,0,VALID,23.0786,VALID,37,VALID,1.09023,
2009-06-07, 02:22:04,VALID,999.92,VALID,0,VALID,92.2497,VALID,0,VALID,23.0786,VALID,36,VALID,1.15,
2009-06-07, 02:23:04,VALID,999.895,VALID,0,VALID,92.2497,VALID,0,VALID,23.1176,VALID,34,VALID,1.00117,
2009-06-07, 02:24:04,VALID,999.876,VALID,0,VALID,91.9522,VALID,0,VALID,23.0573,VALID,34,VALID,0.826563,
2009-06-07, 02:25:04,VALID,999.882,VALID,0,VALID,91.9903,VALID,0,VALID,23.0591,VALID,34,VALID,0.854688,
2009-06-07, 02:26:04,VALID,999.88,VALID,0,VALID,92.1811,VALID,0,VALID,23.0591,VALID,34,VALID,0.763281,
2009-06-07, 02:27:04,VALID,999.883,VALID,0,VALID,92.1353,VALID,0,VALID,23.0396,VALID,22,VALID,0.720312,
2009-06-07, 02:28:04,VALID,999.908,VALID,0,VALID,92.1658,VALID,0,VALID,23.0591,VALID,22,VALID,0.564453,
2009-06-07, 02:29:04,VALID,999.905,VALID,0,VALID,92.0895,VALID,0,VALID,23.0786,VALID,22,VALID,0.321484,
2009-06-07, 02:30:04,VALID,999.901,VALID,0,VALID,92.1124,VALID,0,VALID,23.0591,VALID,22,VALID,0.300391,
2009-06-07, 02:31:04,VALID,999.897,VALID,0,VALID,92.1582,VALID,0,VALID,23.0786,VALID,22,VALID,0.0980469,
2009-06-07, 02:32:04,VALID,999.898,VALID,0,VALID,92.1887,VALID,0,VALID,23.0981,VALID,22,VALID,0,
2009-06-07, 02:33:04,VALID,999.912,VALID,0,VALID,92.2421,VALID,0,VALID,23.0981,VALID,22,VALID,0,
2009-06-07, 02:34:04,VALID,999.871,VALID,0,VALID,92.2497,VALID,0,VALID,23.0573,VALID,22,VALID,0,
2009-06-07, 02:35:04,VALID,999.862,VALID,0,VALID,92.2879,VALID,0,VALID,23.0786,VALID,22,VALID,0,
2009-06-07, 02:36:04,VALID,999.867,VALID,0,VALID,92.3489,VALID,0,VALID,23.0981,VALID,22,VALID,0,
2009-06-07, 02:37:04,VALID,999.83,VALID,0,VALID,92.3031,VALID,0,VALID,23.0769,VALID,22,VALID,0,
2009-06-07, 02:38:04,VALID,999.81,VALID,0,VALID,92.3566,VALID,0,VALID,23.0981,VALID,22,VALID,0.102344,
2009-06-07, 02:39:04,VALID,999.794,VALID,0,VALID,92.3337,VALID,0,VALID,23.0769,VALID,39,VALID,0.726953,
2009-06-07, 02:40:04,VALID,999.779,VALID,0,VALID,92.12,VALID,0,VALID,23.1176,VALID,39,VALID,0.568359,
2009-06-07, 02:41:04,VALID,999.748,VALID,0,VALID,91.6317,VALID,0,VALID,23.1176,VALID,39,VALID,0.363672,
2009-06-07, 02:42:04,VALID,999.742,VALID,0,VALID,91.6165,VALID,0,VALID,23.1176,VALID,39,VALID,0.328906,
2009-06-07, 02:43:04,VALID,999.732,VALID,0,VALID,91.8988,VALID,0,VALID,23.1176,VALID,39,VALID,0.428125,
2009-06-07, 02:44:04,VALID,999.709,VALID,0,VALID,92.1429,VALID,0,VALID,23.1371,VALID,39,VALID,0.361328,
2009-06-07, 02:45:04,VALID,999.685,VALID,0,VALID,92.2574,VALID,0,VALID,23.1762,VALID,39,VALID,0.212109,
2009-06-07, 02:46:04,VALID,999.667,VALID,0,VALID,91.8683,VALID,0,VALID,23.1549,VALID,39,VALID,0.272266,
2009-06-07, 02:47:04,VALID,999.641,VALID,0,VALID,92.204,VALID,0,VALID,23.1566,VALID,39,VALID,0.503516,
2009-06-07, 02:48:04,VALID,999.624,VALID,0,VALID,92.5473,VALID,0,VALID,23.1762,VALID,39,VALID,0.569922,
2009-06-07, 02:49:04,VALID,999.616,VALID,0,VALID,92.5168,VALID,0,VALID,23.1744,VALID,39,VALID,0.522656,
2009-06-07, 02:50:04,VALID,999.56,VALID,0,VALID,92.3031,VALID,0,VALID,23.1744,VALID,39,VALID,0.40625,
2009-06-07, 02:51:04,VALID,999.554,VALID,0,VALID,92.1658,VALID,0,VALID,23.1762,VALID,39,VALID,0.404297,
2009-06-07, 02:52:04,VALID,999.526,VALID,0,VALID,92.3337,VALID,0,VALID,23.1762,VALID,39,VALID,0.610937,
2009-06-07, 02:53:04,VALID,999.505,VALID,0,VALID,92.1887,VALID,0,VALID,23.1549,VALID,41,VALID,0.638672,
2009-06-07, 02:54:04,VALID,999.496,VALID,0,VALID,92.0971,VALID,0,VALID,23.1762,VALID,48,VALID,0.89375,
2009-06-07, 02:55:04,VALID,999.504,VALID,0,VALID,92.0056,VALID,0,VALID,23.1371,VALID,55,VALID,0.970703,
2009-06-07, 02:56:04,VALID,999.51,VALID,0,VALID,91.9827,VALID,0,VALID,23.0964,VALID,57,VALID,0.678906,
2009-06-07, 02:57:04,VALID,999.509,VALID,0,VALID,92.0132,VALID,0,VALID,23.0786,VALID,65,VALID,0.714453,
2009-06-07, 02:58:04,VALID,999.48,VALID,0,VALID,92.265,VALID,0,VALID,23.0378,VALID,65,VALID,0.841016,
2009-06-07, 02:59:04,VALID,999.477,VALID,0,VALID,92.265,VALID,0,VALID,23.0378,VALID,65,VALID,0.698438,
2009-06-07, 03:00:04,VALID,999.45,VALID,0,VALID,92.2955,VALID,0,VALID,23.0591,VALID,65,VALID,0.569531,
2009-06-07, 03:01:04,VALID,999.434,VALID,0,VALID,92.204,VALID,0,VALID,23.0183,VALID,65,VALID,0.457422,
2009-06-07, 03:02:04,VALID,999.442,VALID,0,VALID,92.12,VALID,0,VALID,23.0201,VALID,65,VALID,0.507031,
2009-06-07, 03:03:04,VALID,999.41,VALID,0,VALID,92.2726,VALID,0,VALID,22.9811,VALID,54,VALID,0.705859,
2009-06-07, 03:04:04,VALID,999.403,VALID,0,VALID,92.3184,VALID,0,VALID,22.9208,VALID,45,VALID,0.745313,
2009-06-07, 03:05:04,VALID,999.391,VALID,0,VALID,92.1429,VALID,0,VALID,22.9013,VALID,44,VALID,0.253125,
2009-06-07, 03:06:04,VALID,999.367,VALID,0,VALID,92.326,VALID,0,VALID,22.8835,VALID,43,VALID,0.457422,
2009-06-07, 03:07:04,VALID,999.341,VALID,0,VALID,92.6388,VALID,0,VALID,22.864,VALID,358,VALID,0.686719,
2009-06-07, 03:08:04,VALID,999.29,VALID,0,VALID,92.5931,VALID,0,VALID,22.8232,VALID,358,VALID,0.794922,
2009-06-07, 03:09:04,VALID,999.306,VALID,0,VALID,92.5931,VALID,0,VALID,22.8445,VALID,358,VALID,0.55,
2009-06-07, 03:10:04,VALID,999.257,VALID,0,VALID,92.6694,VALID,0,VALID,22.825,VALID,358,VALID,0.418359,
2009-06-07, 03:11:04,VALID,999.227,VALID,0,VALID,92.6541,VALID,0,VALID,22.8055,VALID,358,VALID,0.520312,
2009-06-07, 03:12:04,VALID,999.25,VALID,0,VALID,92.8067,VALID,0,VALID,22.8055,VALID,356,VALID,0.679297,
2009-06-07, 03:13:04,VALID,999.275,VALID,0,VALID,92.9211,VALID,0,VALID,22.7842,VALID,340,VALID,0.716406,
2009-06-07, 03:14:04,VALID,999.297,VALID,0,VALID,93.0508,VALID,0,VALID,22.8232,VALID,307,VALID,0.693359,
2009-06-07, 03:15:04,VALID,999.286,VALID,0,VALID,93.1195,VALID,0,VALID,22.864,VALID,309,VALID,0.677344,
2009-06-07, 03:16:04,VALID,999.275,VALID,0,VALID,93.0585,VALID,0,VALID,22.8623,VALID,332,VALID,0.739062,
2009-06-07, 03:17:04,VALID,999.286,VALID,0,VALID,92.9517,VALID,0,VALID,22.903,VALID,1,VALID,0.997266,
2009-06-07, 03:18:04,VALID,999.261,VALID,0,VALID,92.9135,VALID,0,VALID,22.9225,VALID,7,VALID,0.818359,
2009-06-07, 03:19:04,VALID,999.28,VALID,0,VALID,92.7609,VALID,0,VALID,22.9208,VALID,7,VALID,1.1457,
2009-06-07, 03:20:04,VALID,999.275,VALID,0,VALID,92.4939,VALID,0,VALID,22.9615,VALID,11,VALID,1.03594,
2009-06-07, 03:21:04,VALID,999.269,VALID,0,VALID,92.0209,VALID,0,VALID,22.9615,VALID,26,VALID,0.733203,
2009-06-07, 03:22:04,VALID,999.299,VALID,0,VALID,91.5783,VALID,0,VALID,23.0006,VALID,28,VALID,0.791797,
2009-06-07, 03:23:04,VALID,999.317,VALID,0,VALID,91.0519,VALID,0,VALID,22.9988,VALID,27,VALID,0.731641,
2009-06-07, 03:24:04,VALID,999.288,VALID,0,VALID,90.5483,VALID,0,VALID,23.0183,VALID,25,VALID,0.384766,
2009-06-07, 03:25:04,VALID,999.288,VALID,0,VALID,90.2355,VALID,0,VALID,23.0786,VALID,45,VALID,0.790625,
2009-06-07, 03:26:04,VALID,999.306,VALID,0,VALID,89.7243,VALID,0,VALID,23.1354,VALID,48,VALID,0.334766,
2009-06-07, 03:27:04,VALID,999.291,VALID,0,VALID,89.3276,VALID,0,VALID,23.1549,VALID,48,VALID,0.276172,
2009-06-07, 03:28:04,VALID,999.288,VALID,0,VALID,89.2284,VALID,0,VALID,23.1744,VALID,48,VALID,0.232422,
2009-06-07, 03:29:04,VALID,999.314,VALID,0,VALID,89.2132,VALID,0,VALID,23.2134,VALID,48,VALID,0.506641,
2009-06-07, 03:30:04,VALID,999.282,VALID,0,VALID,89.0911,VALID,0,VALID,23.2542,VALID,38,VALID,0.430469,
2009-06-07, 03:31:04,VALID,999.288,VALID,0,VALID,89.0148,VALID,0,VALID,23.2329,VALID,38,VALID,0.379297,
2009-06-07, 03:32:04,VALID,999.296,VALID,0,VALID,89.1216,VALID,0,VALID,23.2329,VALID,38,VALID,0.475781,
2009-06-07, 03:33:04,VALID,999.314,VALID,0,VALID,89.3123,VALID,0,VALID,23.2152,VALID,35,VALID,0.70625,
2009-06-07, 03:34:04,VALID,999.293,VALID,0,VALID,89.2971,VALID,0,VALID,23.2329,VALID,38,VALID,0.665625,
2009-06-07, 03:35:04,VALID,999.318,VALID,0,VALID,89.2666,VALID,0,VALID,23.2524,VALID,41,VALID,0.81875,
2009-06-07, 03:36:04,VALID,999.321,VALID,0,VALID,89.2437,VALID,0,VALID,23.2737,VALID,42,VALID,0.821875,
2009-06-07, 03:37:04,VALID,999.312,VALID,0,VALID,89.3352,VALID,0,VALID,23.2524,VALID,41,VALID,0.983984,
2009-06-07, 03:38:04,VALID,999.289,VALID,0,VALID,89.3428,VALID,0,VALID,23.2524,VALID,41,VALID,1.08164,
2009-06-07, 03:39:04,VALID,999.295,VALID,0,VALID,88.908,VALID,0,VALID,23.2524,VALID,44,VALID,1.18281,
2009-06-07, 03:40:04,VALID,999.314,VALID,0,VALID,88.9614,VALID,0,VALID,23.2915,VALID,47,VALID,1.0293,
2009-06-07, 03:41:04,VALID,999.324,VALID,0,VALID,88.908,VALID,0,VALID,23.3127,VALID,47,VALID,1.25391,
2009-06-07, 03:42:04,VALID,999.314,VALID,0,VALID,88.5112,VALID,0,VALID,23.311,VALID,56,VALID,1.08125,
2009-06-07, 03:43:04,VALID,999.291,VALID,0,VALID,88.4349,VALID,0,VALID,23.35,VALID,64,VALID,0.866016,
2009-06-07, 03:44:04,VALID,999.306,VALID,0,VALID,88.0763,VALID,0,VALID,23.389,VALID,61,VALID,0.873438,
2009-06-07, 03:45:04,VALID,999.32,VALID,0,VALID,87.8017,VALID,0,VALID,23.4085,VALID,77,VALID,0.855078,
2009-06-07, 03:46:04,VALID,999.307,VALID,0,VALID,88.1603,VALID,0,VALID,23.4085,VALID,52,VALID,1.2043,